Aérodrome :
LOGIN :

S'inscrire | Disclaimer

   EN    FR    IT 

 










Légende :    VFR   VFR Marginal   IFR   IFR Intensif   IFR Très Intensif
Visi : 
Plafond : 
>= 8 km
>= 3000ft
5 à 8 km
1000 à 3000 ft
1500m à 5 km
500 à 1000 ft
800 à 1500m
200 à 500 ft
< 800m
< 200 ft
Symboles :   Orages  Brouillard  Fortes neiges  Fortes précipitations  Vent > 20 kt
SIGMETs :   Divers  Orages  Givrage  Turbulence  Onde Orograph.  Cendres Volcan.







- Altitude de l'aérodrome : 2661 ft
- Code IATA : TEE


DABS - Cheikh Larbi Tebessi

DERNIER METAR :
  • 180600Z 10002KT CAVOK 23/09 Q1019

METARs EXPIRÉS :
  • 180500Z 05004KT CAVOK 20/09 Q1019
  • 180400Z 10005KT CAVOK 21/11 Q1019

TAF TAF DABS
Valide du 18 à 06h jusqu'au 19 à 06h UTC


180500Z 1806/1906 07008KT 9999 FEW030
BECMG 1807/1809 21015KT
BECMG 1811/1813 35014KT
TEMPO 1812/1820 FEW033CB
PROB40
TEMPO 1813/1818 02015G25KT 4000 -TSRA
BECMG 1820/1822 25006KT
Pas de NOTAMs connus pour ce terrain.



MET'MAP, la Météo Aéronautique d'un coup d'oeil ! - Copyright ORBIFLY Décembre 2007 - Disclaimer

ORBIFLY MET'MAP TEAM :

Programmation & Développement : Alexandra Zaïnal
Conception & Développement : Baudouin d'Aumeries
Co-Programmation & Développement : Marc-Olivier Méhu
Soutien technique & logistique : Manuel Goepfert

Contact : metmap@orbifly.com




SOURCES & CREDITS :

   NOAA